{"data":{"norad_id":35686,"epoch":"2026-05-25T03:50:39.264288Z","epoch_age_seconds":60389,"freshness":"FRESH","line1":"1 35686U 09041F   26145.16017667  .00001901  00000+0  16813-3 0  9996","line2":"2 35686  98.2035 297.2866 0062710 142.3089 218.2549 14.96150176912935","mean_motion":14.96150176,"eccentricity":0.006271,"inclination_deg":98.2035,"raan_deg":297.2866,"arg_perigee_deg":142.3089,"mean_anomaly_deg":218.2549,"bstar":0.00016813,"rev_number":91293,"period_min":96.247022732028,"perigee_km":535.17801660123,"apogee_km":622.43198316376,"semimajor_km":6956.9419998825,"source":"CELESTRAK","updated_at":"2026-05-25T13:38:24.893633Z"}}